DW6233 Weather Reports


Display with metric or nautical units.
time (UTC)temp
F
wind
direction
speed
MPH
gust
MPH
rain 1hr
in
rain 24hr
in
rain mn
in
humidity
%
barometer
mb
20260504120104 58 36 9.0 14.0 0.00 0.00 0.00 77 1034.7
20260504100117 58 20 9.0 16.0 0.00 0.00 0.00 74 1034.8
20260504081525 58 36 5.0 17.0 0.00 0.00 0.00 74 1034.4
20260504050009 58 43 4.0 11.0 0.00 0.00 0.00 79 1033.5
20260504044556 58 34 6.0 13.0 0.00 0.00 0.00 80 1033.5
20260504043054 58 40 8.0 14.0 0.00 0.00 0.00 80 1033.5
20260504041542 58 30 7.0 14.0 0.00 0.00 0.00 80 1033.5
20260504034511 59 95 6.0 15.0 0.00 0.00 0.00 80 1033.7
20260504033133 59 127 8.0 13.0 0.00 0.00 0.00 80 1033.7
20260504030028 59 37 11.0 17.0 0.00 0.00 0.00 80 1033.6
20260504024528 59 37 10.0 19.0 0.00 0.00 0.00 80 1033.7
20260504023025 59 3 11.0 17.0 0.00 0.00 0.00 79 1033.7
20260504020023 59 36 11.0 19.0 0.00 0.00 0.00 77 1033.8
20260504014526 59 15 11.0 19.0 0.00 0.00 0.00 79 1033.9
20260504013021 59 178 6.0 20.0 0.00 0.00 0.00 80 1034.0
20260504010018 59 14 8.0 15.0 0.00 0.00 0.00 79 1034.2
20260504004519 59 52 10.0 18.0 0.00 0.00 0.00 77 1034.4
20260504003016 60 35 10.0 17.0 0.00 0.00 0.00 77 1034.5
20260504000013 60 15 5.0 19.0 0.00 0.00 0.00 77 1034.7
20260503234518 59 35 8.0 18.0 0.00 0.00 0.00 78 1034.9
20260503233012 60 80 9.0 15.0 0.00 0.00 0.00 76 1034.9
20260503230012 59 29 12.0 20.0 0.00 0.00 0.00 77 1034.9
20260503224511 60 14 5.0 17.0 0.00 0.00 0.00 77 1034.8
20260503223009 59 9 8.0 16.0 0.00 0.00 0.00 79 1034.9
20260503220007 59 90 5.0 17.0 0.00 0.00 0.00 79 1034.8
20260503214520 58 32 10.0 15.0 0.00 0.00 0.00 78 1034.8
20260503213006 58 37 5.0 14.0 0.00 0.00 0.00 80 1034.9
20260503210002 58 38 5.0 13.0 0.00 0.00 0.00 82 1035.1
20260503204500 58 33 4.0 15.0 0.00 0.00 0.00 81 1035.0
20260503203059 57 36 9.0 16.0 0.00 0.00 0.00 79 1034.9
20260503201659 57 124 3.0 12.0 0.00 0.00 0.00 79 1034.7
20260503200113 57 80 4.0 9.0 0.00 0.00 0.00 80 1034.7
20260503194604 57 116 1.0 10.0 0.00 0.00 0.00 80 1034.6
20260503193103 57 29 3.0 8.0 0.00 0.00 0.00 80 1034.4
20260503191656 57 34 6.0 13.0 0.00 0.00 0.00 80 1034.3
20260503190020 56 131 3.0 11.0 0.00 0.00 0.00 80 1034.3
20260503184523 56 43 3.0 10.0 0.00 0.00 0.00 80 1034.2
20260503183015 56 29 7.0 11.0 0.00 0.00 0.00 80 1034.2
20260503181608 56 15 5.0 13.0 0.00 0.00 0.00 80 1034.2
20260503180111 56 44 4.0 11.0 0.00 0.00 0.00 81 1034.2
20260503174541 56 28 3.0 9.0 0.00 0.00 0.00 81 1034.2
20260503173003 56 47 5.0 10.0 0.00 0.00 0.00 80 1034.2
20260503171520 56 28 5.0 10.0 0.00 0.00 0.00 80 1034.2